Terminal Aerodrome Forecast
Issued by NWS

Home | Current Version | Previous Version | Text Only | Print | Product List | Glossary On
Versions: 1 2 3 4 5 6 7 8 9 10 11 12 13 14 15 16 17 18 19 20 21 22 23 24 25 26 27 28 29 30 31 32 33 34 35 36 37 38 39 40 41 42 43 44 45 46 47
000
FTUS45 KGJT 202337
TAFRIL
TAF
KRIL 202337Z 2100/2124 VRB03KT P6SM VCSH SCT040 OVC070
     FM211800 VRB02KT 3SM -SN BR SCT020 OVC030=

USA.gov is the U.S. government's official web portal to all federal, state and local government web resources and services.